Tracking 17780 objects as of 28-July-2016
HD Live streaming from Space Station
objects crossing your sky now

NAVSTAR 28 (USA 85)

Track NAVSTAR 28 (USA 85) now!
NAVSTAR 28 (USA 85) is classified as:


NORAD ID: 22231
Int'l Code: 1992-079A
Perigee: 19,961.4 km
Apogee: 20,416.3 km
Inclination: 55.4 °
Period: 718.0 minutes
Semi major axis: 26559 km
RCS: 3.981 m2 (large)
Launch date: November 22, 1992
Source: United States (US)
Launch site: AIR FORCE EASTERN TEST RANGE (AFETR)
PRN:
Your satellite tracking list
Your tracking list is empty





NASA's NSSDC Master Catalog

Two Line Element Set (TLE):
1 22231U 92079A   16210.55278096  .00000068  00000-0  00000+0 0  9992
2 22231  55.3847 239.7990 0085628 298.0194 124.1618  2.00569475173502
Source of the keplerian elements: AFSPC

N2YO: 1187